Torna al catalogo

WESTAR 5

AttivoComunicazioniGEO
NORAD 13269·PAYLOAD·🇺🇸 United States

Lanciato Jun 9, 1982 da Cape Canaveral Space Force Station

Loading…

TLE

AggiornatoSource: Space-Track

Epoca: Sep 10, 2026, 21:26 UTC

1 13269U 82058A   26253.89350361 -.00000074  00000-0  00000+0 0  9998
2 13269  13.0492 336.6184 0018646 274.2564  80.9139  0.99216982120388

Traccia WESTAR 5 in tempo reale con AllMySat

Download on the App Store